Tracking 17886 objects as of 8-December-2016
HD Live streaming from Space Station
objects crossing your sky now

NAVSTAR 36 (USA 100)

Track NAVSTAR 36 (USA 100) now!
NAVSTAR 36 (USA 100) is classified as:


NORAD ID: 23027
Int'l Code: 1994-016A
Perigee: 19,937.4 km
Apogee: 20,541.1 km
Inclination: 54.7 °
Period: 720.0 minutes
Semi major axis: 26610 km
RCS: 2.0263 m2 (large)
Launch date: March 10, 1994
Source: United States (US)
Launch site: AIR FORCE EASTERN TEST RANGE (AFETR)
PRN:
Your satellite tracking list
Your tracking list is empty





NASA's NSSDC Master Catalog

Two Line Element Set (TLE):
1 23027U 94016A   16342.20908205 -.00000058  00000-0  00000+0 0  9999
2 23027  54.7056  43.0015 0113437  17.0037  79.6977  2.00564939166661
Source of the keplerian elements: AFSPC